| time (UTC) | temp F | wind direction | speed MPH | gust MPH | rain 1hr in | rain 24hr in | rain mn in | humidity % | barometer mb |
| 20260905133124 | 64 | 51 | 5.0 | 12.0 | 0.00 | 0.00 | 0.00 | 90 | 944.3 |
| 20260905132623 | 64 | 46 | 3.0 | 12.0 | 0.00 | 0.00 | 0.00 | 89 | 944.3 |
| 20260905132121 | 64 | 49 | 3.0 | 12.0 | 0.00 | 0.00 | 0.00 | 88 | 944.2 |
| 20260905131104 | 64 | 39 | 4.0 | 12.0 | 0.00 | 0.00 | 0.00 | 87 | 943.9 |
| 20260905130603 | 64 | 54 | 4.0 | 12.0 | 0.00 | 0.00 | 0.00 | 88 | 943.8 |
| 20260905125601 | 64 | 50 | 5.0 | 12.0 | 0.00 | 0.00 | 0.00 | 89 | 944.0 |
| 20260905125100 | 64 | 44 | 6.0 | 12.0 | 0.00 | 0.00 | 0.00 | 90 | 944.2 |
| 20260905124559 | 64 | 39 | 6.0 | 12.0 | 0.00 | 0.00 | 0.00 | 90 | 944.2 |
| 20260905124058 | 64 | 40 | 4.0 | 12.0 | 0.00 | 0.00 | 0.00 | 90 | 944.3 |
| 20260905123557 | 64 | 36 | 4.0 | 12.0 | 0.00 | 0.00 | 0.00 | 91 | 944.0 |
| 20260905123056 | 64 | 39 | 5.0 | 12.0 | 0.00 | 0.00 | 0.00 | 90 | 944.4 |
| 20260905121523 | 64 | 39 | 4.0 | 12.0 | 0.00 | 0.00 | 0.00 | 92 | 944.5 |
| 20260905121022 | 64 | 42 | 5.0 | 12.0 | 0.00 | 0.00 | 0.00 | 92 | 944.5 |
| 20260905120005 | 64 | 45 | 4.0 | 12.0 | 0.00 | 0.00 | 0.00 | 91 | 944.7 |
| 20260905115504 | 64 | 43 | 4.0 | 12.0 | 0.00 | 0.00 | 0.00 | 91 | 944.4 |
| 20260905114447 | 64 | 41 | 3.0 | 12.0 | 0.00 | 0.00 | 0.00 | 91 | 944.7 |
| 20260905113946 | 65 | 43 | 4.0 | 12.0 | 0.00 | 0.00 | 0.00 | 91 | 945.1 |
| 20260905113445 | 65 | 42 | 3.0 | 12.0 | 0.00 | 0.00 | 0.00 | 92 | 944.9 |
| 20260905112944 | 65 | 45 | 4.0 | 12.0 | 0.00 | 0.00 | 0.00 | 91 | 945.1 |
| 20260905112442 | 65 | 33 | 4.0 | 12.0 | 0.00 | 0.00 | 0.00 | 91 | 945.1 |
| 20260905111941 | 65 | 41 | 4.0 | 12.0 | 0.00 | 0.00 | 0.00 | 91 | 945.0 |
| 20260905111439 | 65 | 28 | 4.0 | 12.0 | 0.00 | 0.00 | 0.00 | 91 | 945.0 |
| 20260905110938 | 65 | 36 | 4.0 | 12.0 | 0.00 | 0.00 | 0.00 | 91 | 944.9 |
| 20260905110437 | 65 | 33 | 5.0 | 12.0 | 0.00 | 0.00 | 0.00 | 91 | 945.0 |
| 20260905105936 | 65 | 41 | 4.0 | 12.0 | 0.00 | 0.00 | 0.00 | 91 | 945.4 |
| 20260905105435 | 65 | 38 | 4.0 | 12.0 | 0.00 | 0.00 | 0.00 | 91 | 945.2 |
| 20260905104934 | 65 | 57 | 3.0 | 12.0 | 0.00 | 0.00 | 0.00 | 92 | 945.2 |
| 20260905104433 | 65 | 52 | 4.0 | 12.0 | 0.00 | 0.00 | 0.00 | 92 | 945.3 |
| 20260905103932 | 65 | 55 | 3.0 | 12.0 | 0.00 | 0.00 | 0.00 | 92 | 945.4 |
| 20260905102915 | 65 | 50 | 4.0 | 12.0 | 0.00 | 0.00 | 0.00 | 92 | 945.4 |
| 20260905102414 | 65 | 49 | 3.0 | 12.0 | 0.00 | 0.00 | 0.00 | 92 | 945.3 |
| 20260905101913 | 65 | 43 | 4.0 | 12.0 | 0.00 | 0.00 | 0.00 | 92 | 945.3 |
| 20260905101412 | 65 | 44 | 4.0 | 12.0 | 0.00 | 0.00 | 0.00 | 92 | 945.3 |
| 20260905100911 | 65 | 47 | 5.0 | 12.0 | 0.00 | 0.00 | 0.00 | 92 | 945.5 |
| 20260905095854 | 65 | 48 | 3.0 | 12.0 | 0.00 | 0.00 | 0.00 | 92 | 945.5 |
| 20260905095353 | 65 | 50 | 4.0 | 12.0 | 0.00 | 0.00 | 0.00 | 92 | 945.4 |
| 20260905094852 | 64 | 52 | 3.0 | 13.0 | 0.00 | 0.00 | 0.00 | 92 | 945.8 |
| 20260905094351 | 65 | 49 | 3.0 | 13.0 | 0.00 | 0.00 | 0.00 | 92 | 946.0 |
| 20260905093850 | 65 | 47 | 4.0 | 13.0 | 0.00 | 0.00 | 0.00 | 92 | 945.6 |
| 20260905093349 | 65 | 51 | 3.0 | 13.0 | 0.00 | 0.00 | 0.00 | 92 | 946.0 |
| 20260905092848 | 65 | 46 | 3.0 | 13.0 | 0.00 | 0.00 | 0.00 | 92 | 945.9 |
| 20260905092347 | 65 | 33 | 5.0 | 13.0 | 0.00 | 0.00 | 0.00 | 92 | 945.9 |
| 20260905091846 | 65 | 38 | 4.0 | 13.0 | 0.00 | 0.00 | 0.00 | 91 | 945.9 |
| 20260905085756 | 65 | 30 | 5.0 | 13.0 | 0.00 | 0.00 | 0.00 | 91 | 945.8 |
| 20260905085255 | 65 | 28 | 5.0 | 13.0 | 0.00 | 0.00 | 0.00 | 91 | 945.7 |
| 20260905083722 | 65 | 18 | 4.0 | 13.0 | 0.00 | 0.00 | 0.00 | 91 | 945.7 |
| 20260905083221 | 65 | 29 | 6.0 | 13.0 | 0.00 | 0.00 | 0.00 | 91 | 945.7 |
| 20260905082720 | 65 | 22 | 5.0 | 12.0 | 0.00 | 0.00 | 0.00 | 90 | 945.7 |
| 20260905082219 | 65 | 30 | 6.0 | 12.0 | 0.00 | 0.00 | 0.00 | 90 | 945.7 |
| 20260905081718 | 65 | 19 | 5.0 | 12.0 | 0.00 | 0.00 | 0.00 | 91 | 945.8 |
| 20260905081217 | 65 | 30 | 4.0 | 12.0 | 0.00 | 0.00 | 0.00 | 90 | 945.8 |
| 20260905080716 | 66 | 29 | 6.0 | 13.0 | 0.00 | 0.00 | 0.00 | 91 | 945.9 |
| 20260905080215 | 66 | 22 | 5.0 | 13.0 | 0.00 | 0.00 | 0.00 | 90 | 945.9 |
| 20260905075714 | 66 | 27 | 6.0 | 13.0 | 0.00 | 0.00 | 0.00 | 91 | 945.8 |
| 20260905075213 | 66 | 32 | 5.0 | 13.0 | 0.00 | 0.00 | 0.00 | 91 | 945.8 |
| 20260905074712 | 66 | 26 | 6.0 | 13.0 | 0.00 | 0.00 | 0.00 | 90 | 946.5 |
| 20260905074211 | 66 | 23 | 5.0 | 14.0 | 0.00 | 0.00 | 0.00 | 90 | 945.7 |
| 20260905073710 | 65 | 28 | 5.0 | 14.0 | 0.00 | 0.00 | 0.00 | 91 | 946.1 |
| 20260905073209 | 66 | 37 | 6.0 | 14.0 | 0.00 | 0.00 | 0.00 | 92 | 946.0 |
| 20260905072708 | 65 | 31 | 7.0 | 15.0 | 0.00 | 0.00 | 0.00 | 92 | 945.9 |
| 20260905072207 | 66 | 30 | 5.0 | 15.0 | 0.00 | 0.00 | 0.00 | 92 | 945.9 |
| 20260905071150 | 66 | 33 | 6.0 | 14.0 | 0.00 | 0.00 | 0.00 | 91 | 945.8 |
| 20260905070649 | 65 | 26 | 5.0 | 14.0 | 0.00 | 0.00 | 0.00 | 92 | 945.7 |
| 20260905070148 | 66 | 32 | 6.0 | 14.0 | 0.00 | 0.00 | 0.00 | 92 | 945.7 |
| 20260905065647 | 66 | 31 | 7.0 | 14.0 | 0.00 | 0.00 | 0.00 | 92 | 945.8 |
| 20260905065146 | 66 | 20 | 5.0 | 12.0 | 0.00 | 0.00 | 0.00 | 92 | 945.8 |
| 20260905064645 | 66 | 22 | 4.0 | 12.0 | 0.00 | 0.00 | 0.00 | 93 | 945.7 |
| 20260905064144 | 66 | 29 | 5.0 | 12.0 | 0.00 | 0.00 | 0.00 | 93 | 945.6 |
| 20260905063643 | 66 | 33 | 7.0 | 12.0 | 0.00 | 0.00 | 0.00 | 93 | 945.7 |
| 20260905063142 | 66 | 44 | 6.0 | 12.0 | 0.00 | 0.00 | 0.00 | 93 | 945.8 |
| 20260905062641 | 66 | 40 | 4.0 | 12.0 | 0.00 | 0.00 | 0.00 | 93 | 945.8 |
| 20260905062140 | 66 | 35 | 5.0 | 12.0 | 0.00 | 0.00 | 0.00 | 94 | 945.8 |
| 20260905061639 | 66 | 43 | 5.0 | 12.0 | 0.00 | 0.00 | 0.00 | 94 | 945.7 |
| 20260905061138 | 66 | 47 | 5.0 | 12.0 | 0.00 | 0.00 | 0.00 | 94 | 945.7 |
| 20260905060637 | 66 | 46 | 5.0 | 12.0 | 0.00 | 0.00 | 0.00 | 94 | 945.6 |
| 20260905055620 | 66 | 51 | 5.0 | 12.0 | 0.00 | 0.00 | 0.00 | 94 | 945.5 |
| 20260905055120 | 66 | 57 | 5.0 | 12.0 | 0.00 | 0.00 | 0.00 | 94 | 945.2 |
| 20260905054618 | 66 | 39 | 5.0 | 12.0 | 0.00 | 0.00 | 0.00 | 93 | 945.3 |
| 20260905054118 | 66 | 34 | 6.0 | 12.0 | 0.00 | 0.00 | 0.00 | 92 | 945.4 |
| 20260905053617 | 66 | 35 | 6.0 | 12.0 | 0.00 | 0.00 | 0.00 | 92 | 945.8 |
| 20260905053116 | 66 | 38 | 5.0 | 12.0 | 0.00 | 0.00 | 0.00 | 91 | 945.4 |
| 20260905052613 | 66 | 33 | 5.0 | 12.0 | 0.00 | 0.00 | 0.00 | 92 | 945.3 |
| 20260905052113 | 66 | 28 | 4.0 | 12.0 | 0.00 | 0.00 | 0.00 | 91 | 945.0 |
| 20260905051611 | 66 | 34 | 4.0 | 12.0 | 0.00 | 0.00 | 0.00 | 91 | 945.1 |
| 20260905051109 | 66 | 39 | 5.0 | 12.0 | 0.00 | 0.00 | 0.00 | 91 | 944.8 |
| 20260905050608 | 66 | 28 | 5.0 | 12.0 | 0.00 | 0.00 | 0.00 | 91 | 944.8 |
| 20260905050107 | 66 | 29 | 5.0 | 12.0 | 0.00 | 0.00 | 0.00 | 91 | 945.0 |
| 20260905045606 | 66 | 31 | 5.0 | 12.0 | 0.00 | 0.00 | 0.00 | 91 | 944.9 |
| 20260905045105 | 66 | 41 | 5.0 | 12.0 | 0.00 | 0.00 | 0.00 | 90 | 945.2 |
| 20260905044605 | 66 | 36 | 5.0 | 12.0 | 0.00 | 0.00 | 0.00 | 91 | 945.0 |
| 20260905044104 | 66 | 35 | 4.0 | 12.0 | 0.00 | 0.00 | 0.00 | 90 | 945.0 |
| 20260905042529 | 67 | 42 | 5.0 | 12.0 | 0.00 | 0.00 | 0.00 | 90 | 944.7 |
| 20260905042028 | 67 | 40 | 4.0 | 12.0 | 0.00 | 0.00 | 0.00 | 89 | 944.6 |
| 20260905041527 | 67 | 32 | 4.0 | 12.0 | 0.00 | 0.00 | 0.00 | 89 | 944.7 |
| 20260905041026 | 67 | 36 | 4.0 | 12.0 | 0.00 | 0.00 | 0.00 | 89 | 945.0 |
| 20260905040525 | 67 | 38 | 6.0 | 12.0 | 0.00 | 0.00 | 0.00 | 89 | 944.4 |
| 20260905040025 | 68 | 32 | 5.0 | 11.0 | 0.00 | 0.00 | 0.00 | 89 | 944.5 |
| 20260905035523 | 68 | 30 | 5.0 | 11.0 | 0.00 | 0.00 | 0.00 | 89 | 944.3 |
| 20260905035022 | 68 | 35 | 5.0 | 11.0 | 0.00 | 0.00 | 0.00 | 89 | 944.4 |
| 20260905034521 | 68 | 33 | 6.0 | 11.0 | 0.00 | 0.00 | 0.00 | 88 | 944.4 |
| 20260905034021 | 68 | 37 | 6.0 | 11.0 | 0.00 | 0.00 | 0.00 | 89 | 944.5 |
| 20260905033519 | 69 | 39 | 6.0 | 11.0 | 0.00 | 0.00 | 0.00 | 89 | 944.6 |
| 20260905033018 | 69 | 35 | 6.0 | 11.0 | 0.00 | 0.00 | 0.00 | 86 | 944.4 |
| 20260905032002 | 69 | 37 | 6.0 | 11.0 | 0.00 | 0.00 | 0.00 | 85 | 944.6 |
| 20260905031459 | 69 | 40 | 6.0 | 11.0 | 0.00 | 0.00 | 0.00 | 84 | 944.6 |
| 20260905030958 | 70 | 39 | 3.0 | 11.0 | 0.00 | 0.00 | 0.00 | 86 | 944.5 |
| 20260905030457 | 70 | 41 | 6.0 | 12.0 | 0.00 | 0.00 | 0.00 | 84 | 944.6 |
| 20260905025957 | 70 | 44 | 6.0 | 12.0 | 0.00 | 0.00 | 0.00 | 83 | 944.6 |
| 20260905025455 | 70 | 41 | 7.0 | 14.0 | 0.00 | 0.00 | 0.00 | 84 | 944.5 |
| 20260905024955 | 70 | 44 | 6.0 | 14.0 | 0.00 | 0.00 | 0.00 | 84 | 944.7 |
| 20260905023937 | 70 | 37 | 6.0 | 14.0 | 0.00 | 0.00 | 0.00 | 86 | 944.3 |
| 20260905022404 | 70 | 39 | 6.0 | 14.0 | 0.00 | 0.00 | 0.00 | 85 | 945.0 |
| 20260905021903 | 70 | 42 | 5.0 | 14.0 | 0.00 | 0.00 | 0.00 | 85 | 944.8 |
| 20260905021402 | 71 | 47 | 5.0 | 14.0 | 0.00 | 0.00 | 0.00 | 86 | 945.0 |
| 20260905020901 | 71 | 45 | 4.0 | 14.0 | 0.00 | 0.00 | 0.00 | 87 | 945.0 |
| 20260905020400 | 72 | 47 | 5.0 | 14.0 | 0.00 | 0.00 | 0.00 | 85 | 944.9 |
| 20260905015859 | 72 | 40 | 5.0 | 14.0 | 0.00 | 0.00 | 0.00 | 85 | 944.9 |
| 20260905014842 | 72 | 34 | 5.0 | 14.0 | 0.00 | 0.00 | 0.00 | 84 | 944.9 |
| 20260905014341 | 73 | 47 | 5.0 | 11.0 | 0.00 | 0.00 | 0.00 | 83 | 944.9 |
| 20260905013839 | 73 | 59 | 5.0 | 11.0 | 0.00 | 0.00 | 0.00 | 82 | 945.1 |
| 20260905013338 | 73 | 57 | 4.0 | 11.0 | 0.00 | 0.00 | 0.00 | 82 | 944.9 |
| 20260905012837 | 73 | 57 | 2.0 | 14.0 | 0.00 | 0.00 | 0.00 | 83 | 945.1 |
| 20260905012335 | 73 | 37 | 4.0 | 14.0 | 0.00 | 0.00 | 0.00 | 83 | 944.8 |
| 20260905011834 | 72 | 63 | 3.0 | 13.0 | 0.00 | 0.00 | 0.00 | 83 | 944.5 |
| 20260905011333 | 72 | 36 | 4.0 | 14.0 | 0.00 | 0.00 | 0.00 | 82 | 944.8 |
| 20260905010832 | 72 | 48 | 6.0 | 14.0 | 0.00 | 0.00 | 0.00 | 81 | 944.6 |
| 20260905010331 | 72 | 54 | 3.0 | 14.0 | 0.00 | 0.00 | 0.00 | 85 | 945.1 |
| 20260905005830 | 72 | 55 | 6.0 | 13.0 | 0.00 | 0.00 | 0.00 | 83 | 945.1 |
| 20260905005329 | 71 | 56 | 5.0 | 13.0 | 0.00 | 0.00 | 0.00 | 85 | 944.6 |
| 20260905004828 | 72 | 49 | 6.0 | 13.0 | 0.00 | 0.00 | 0.00 | 85 | 945.2 |
| 20260905004327 | 72 | 59 | 6.0 | 13.0 | 0.00 | 0.00 | 0.00 | 86 | 945.1 |
| 20260905003310 | 74 | 46 | 7.0 | 12.0 | 0.00 | 0.00 | 0.00 | 84 | 945.0 |
| 20260905002809 | 74 | 39 | 5.0 | 12.0 | 0.00 | 0.00 | 0.00 | 83 | 945.0 |
| 20260905001752 | 74 | 29 | 4.0 | 14.0 | 0.00 | 0.00 | 0.00 | 81 | 945.0 |
| 20260905001250 | 74 | 29 | 4.0 | 14.0 | 0.00 | 0.00 | 0.00 | 82 | 945.4 |
| 20260905000749 | 73 | 41 | 4.0 | 14.0 | 0.00 | 0.00 | 0.00 | 83 | 945.4 |
| 20260905000248 | 73 | 44 | 6.0 | 14.0 | 0.00 | 0.00 | 0.00 | 81 | 945.3 |
| 20260904235747 | 73 | 42 | 6.0 | 14.0 | 0.00 | 0.00 | 0.00 | 82 | 945.2 |
| 20260904235245 | 72 | 38 | 8.0 | 14.0 | 0.00 | 0.00 | 0.00 | 81 | 945.2 |
| 20260904234744 | 72 | 44 | 8.0 | 12.0 | 0.00 | 0.00 | 0.00 | 83 | 945.5 |
| 20260904234243 | 71 | 46 | 6.0 | 15.0 | 0.00 | 0.00 | 0.00 | 84 | 945.3 |
| 20260904233226 | 70 | 40 | 6.0 | 14.0 | 0.00 | 0.00 | 0.00 | 89 | 945.5 |
| 20260904232725 | 71 | 46 | 8.0 | 14.0 | 0.00 | 0.00 | 0.00 | 86 | 945.6 |
| 20260904232224 | 73 | 51 | 5.0 | 13.0 | 0.00 | 0.00 | 0.00 | 87 | 945.5 |
| 20260904230651 | 74 | 43 | 5.0 | 11.0 | 0.00 | 0.00 | 0.00 | 87 | 945.6 |
| 20260904230150 | 74 | 42 | 4.0 | 11.0 | 0.00 | 0.00 | 0.00 | 88 | 945.6 |
| 20260904225649 | 74 | 46 | 5.0 | 11.0 | 0.00 | 0.00 | 0.00 | 86 | 946.0 |
| 20260904225147 | 74 | 42 | 4.0 | 11.0 | 0.00 | 0.00 | 0.00 | 88 | 945.9 |
| 20260904224646 | 75 | 87 | 4.0 | 11.0 | 0.00 | 0.00 | 0.00 | 87 | 945.8 |
| 20260904224145 | 75 | 60 | 4.0 | 11.0 | 0.00 | 0.00 | 0.00 | 87 | 946.1 |
| 20260904223644 | 75 | 60 | 5.0 | 11.0 | 0.00 | 0.00 | 0.00 | 85 | 946.4 |
| 20260904223143 | 75 | 51 | 5.0 | 12.0 | 0.00 | 0.00 | 0.00 | 87 | 946.0 |
| 20260904222642 | 74 | 61 | 3.0 | 12.0 | 0.00 | 0.00 | 0.00 | 88 | 946.4 |
| 20260904222141 | 74 | 42 | 3.0 | 14.0 | 0.00 | 0.00 | 0.00 | 88 | 946.0 |
| 20260904221640 | 74 | 40 | 3.0 | 14.0 | 0.00 | 0.00 | 0.00 | 89 | 946.2 |
| 20260904221139 | 74 | 54 | 5.0 | 12.0 | 0.00 | 0.00 | 0.00 | 88 | 945.9 |
| 20260904220122 | 73 | 38 | 6.0 | 16.0 | 0.00 | 0.00 | 0.00 | 87 | 946.2 |
| 20260904215621 | 73 | 43 | 6.0 | 16.0 | 0.00 | 0.00 | 0.00 | 88 | 946.4 |
| 20260904215119 | 73 | 40 | 6.0 | 16.0 | 0.00 | 0.00 | 0.00 | 88 | 946.4 |
| 20260904214618 | 73 | 44 | 5.0 | 12.0 | 0.00 | 0.00 | 0.00 | 88 | 946.1 |
| 20260904214117 | 73 | 51 | 4.0 | 12.0 | 0.00 | 0.00 | 0.00 | 89 | 945.9 |
| 20260904213616 | 73 | 42 | 6.0 | 13.0 | 0.00 | 0.00 | 0.00 | 88 | 945.8 |
| 20260904213114 | 73 | 44 | 5.0 | 13.0 | 0.00 | 0.00 | 0.00 | 89 | 946.1 |
| 20260904212057 | 73 | 39 | 8.0 | 13.0 | 0.00 | 0.00 | 0.00 | 88 | 946.2 |
| 20260904211040 | 73 | 58 | 6.0 | 14.0 | 0.00 | 0.00 | 0.00 | 89 | 946.2 |
| 20260904210022 | 74 | 37 | 6.0 | 14.0 | 0.00 | 0.00 | 0.00 | 88 | 945.8 |
| 20260904205521 | 73 | 43 | 6.0 | 14.0 | 0.00 | 0.00 | 0.00 | 89 | 946.1 |
| 20260904205020 | 73 | 50 | 5.0 | 13.0 | 0.00 | 0.00 | 0.00 | 90 | 946.1 |
| 20260904204002 | 73 | 47 | 6.0 | 15.0 | 0.00 | 0.00 | 0.00 | 90 | 946.1 |
| 20260904202945 | 72 | 60 | 7.0 | 13.0 | 0.00 | 0.00 | 0.00 | 90 | 946.1 |
| 20260904202444 | 72 | 53 | 5.0 | 12.0 | 0.00 | 0.00 | 0.00 | 92 | 946.0 |
| 20260904201427 | 72 | 49 | 6.0 | 14.0 | 0.00 | 0.00 | 0.00 | 92 | 946.5 |
| 20260904200926 | 71 | 47 | 6.0 | 14.0 | 0.00 | 0.00 | 0.00 | 93 | 946.1 |
| 20260904200425 | 71 | 49 | 7.0 | 13.0 | 0.00 | 0.00 | 0.00 | 92 | 945.7 |
| 20260904195924 | 71 | 50 | 8.0 | 15.0 | 0.00 | 0.00 | 0.00 | 92 | 946.1 |
| 20260904194907 | 71 | 47 | 7.0 | 16.0 | 0.00 | 0.00 | 0.00 | 91 | 946.0 |
| 20260904194406 | 71 | 49 | 7.0 | 14.0 | 0.00 | 0.00 | 0.00 | 91 | 945.8 |
| 20260904193905 | 70 | 53 | 7.0 | 15.0 | 0.00 | 0.00 | 0.00 | 93 | 946.1 |
| 20260904193404 | 70 | 49 | 9.0 | 15.0 | 0.00 | 0.00 | 0.00 | 94 | 946.0 |
| 20260904192903 | 70 | 48 | 10.0 | 19.0 | 0.00 | 0.00 | 0.00 | 93 | 945.8 |
| 20260904191846 | 70 | 40 | 7.0 | 14.0 | 0.00 | 0.00 | 0.00 | 94 | 946.0 |
| 20260904191345 | 69 | 43 | 8.0 | 18.0 | 0.00 | 0.00 | 0.00 | 94 | 946.0 |
| 20260904190844 | 69 | 52 | 8.0 | 18.0 | 0.00 | 0.00 | 0.00 | 93 | 945.8 |
| 20260904190342 | 69 | 47 | 7.0 | 19.0 | 0.00 | 0.00 | 0.00 | 94 | 946.4 |
| 20260904185841 | 69 | 46 | 7.0 | 19.0 | 0.00 | 0.00 | 0.00 | 94 | 945.8 |
| 20260904185340 | 69 | 50 | 6.0 | 16.0 | 0.00 | 0.00 | 0.00 | 94 | 945.9 |
| 20260904184323 | 69 | 51 | 6.0 | 14.0 | 0.00 | 0.00 | 0.00 | 95 | 946.1 |
| 20260904183305 | 68 | 52 | 5.0 | 14.0 | 0.00 | 0.00 | 0.00 | 96 | 945.8 |
| 20260904181216 | 68 | 48 | 6.0 | 16.0 | 0.00 | 0.00 | 0.00 | 95 | 945.9 |
| 20260904180714 | 68 | 39 | 6.0 | 14.0 | 0.00 | 0.00 | 0.00 | 95 | 945.8 |
| 20260904180213 | 68 | 43 | 8.0 | 14.0 | 0.00 | 0.00 | 0.00 | 94 | 946.1 |
| 20260904175712 | 68 | 41 | 7.0 | 14.0 | 0.00 | 0.00 | 0.00 | 93 | 945.7 |
| 20260904175211 | 68 | 42 | 7.0 | 14.0 | 0.00 | 0.00 | 0.00 | 95 | 945.9 |
| 20260904174709 | 68 | 46 | 7.0 | 14.0 | 0.00 | 0.00 | 0.00 | 95 | 945.5 |
| 20260904174208 | 67 | 42 | 6.0 | 14.0 | 0.00 | 0.00 | 0.00 | 95 | 945.9 |
| 20260904173707 | 67 | 41 | 6.0 | 14.0 | 0.00 | 0.00 | 0.00 | 95 | 945.9 |
| 20260904173205 | 67 | 30 | 5.0 | 14.0 | 0.00 | 0.00 | 0.00 | 95 | 945.4 |
| 20260904172704 | 67 | 38 | 8.0 | 14.0 | 0.00 | 0.00 | 0.00 | 94 | 945.5 |
| 20260904172203 | 67 | 37 | 7.0 | 15.0 | 0.00 | 0.00 | 0.00 | 94 | 945.3 |
| 20260904171702 | 66 | 42 | 7.0 | 15.0 | 0.00 | 0.00 | 0.00 | 93 | 945.4 |
| 20260904171201 | 67 | 38 | 8.0 | 15.0 | 0.00 | 0.00 | 0.00 | 93 | 945.3 |
| 20260904170700 | 67 | 37 | 7.0 | 14.0 | 0.00 | 0.00 | 0.00 | 93 | 945.3 |
| 20260904170159 | 66 | 47 | 6.0 | 15.0 | 0.00 | 0.00 | 0.00 | 94 | 945.4 |
| 20260904165658 | 66 | 48 | 5.0 | 15.0 | 0.00 | 0.00 | 0.00 | 94 | 945.4 |
| 20260904164640 | 66 | 50 | 6.0 | 14.0 | 0.00 | 0.00 | 0.00 | 95 | 945.2 |
| 20260904164139 | 66 | 44 | 7.0 | 14.0 | 0.00 | 0.00 | 0.00 | 95 | 945.2 |
| 20260904163122 | 66 | 38 | 7.0 | 14.0 | 0.00 | 0.00 | 0.00 | 95 | 945.0 |
| 20260904162621 | 66 | 37 | 5.0 | 14.0 | 0.00 | 0.00 | 0.00 | 95 | 945.4 |
| 20260904161604 | 66 | 43 | 5.0 | 11.0 | 0.00 | 0.00 | 0.00 | 94 | 945.2 |
| 20260904161104 | 66 | 43 | 5.0 | 13.0 | 0.00 | 0.00 | 0.00 | 94 | 945.2 |
| 20260904160046 | 66 | 38 | 8.0 | 13.0 | 0.00 | 0.00 | 0.00 | 94 | 945.2 |
| 20260904155545 | 66 | 41 | 6.0 | 13.0 | 0.00 | 0.00 | 0.00 | 94 | 944.8 |
| 20260904155044 | 66 | 41 | 6.0 | 13.0 | 0.00 | 0.00 | 0.00 | 93 | 944.9 |
| 20260904154542 | 66 | 49 | 6.0 | 13.0 | 0.00 | 0.00 | 0.00 | 93 | 944.9 |
| 20260904154041 | 66 | 41 | 6.0 | 13.0 | 0.00 | 0.00 | 0.00 | 93 | 944.8 |
| 20260904153540 | 66 | 42 | 7.0 | 15.0 | 0.00 | 0.00 | 0.00 | 93 | 944.7 |
| 20260904153039 | 66 | 39 | 6.0 | 15.0 | 0.00 | 0.00 | 0.00 | 93 | 945.1 |
| 20260904152539 | 66 | 46 | 5.0 | 15.0 | 0.00 | 0.00 | 0.00 | 93 | 945.0 |
| 20260904152037 | 66 | 39 | 5.0 | 14.0 | 0.00 | 0.00 | 0.00 | 93 | 944.8 |
| 20260904151536 | 66 | 42 | 8.0 | 14.0 | 0.00 | 0.00 | 0.00 | 93 | 945.1 |
| 20260904151036 | 66 | 45 | 7.0 | 14.0 | 0.00 | 0.00 | 0.00 | 93 | 944.9 |
| 20260904150534 | 65 | 46 | 5.0 | 15.0 | 0.00 | 0.00 | 0.00 | 93 | 945.0 |
| 20260904150033 | 66 | 44 | 6.0 | 15.0 | 0.00 | 0.00 | 0.00 | 93 | 945.1 |
| 20260904145533 | 65 | 44 | 7.0 | 13.0 | 0.00 | 0.00 | 0.00 | 93 | 945.2 |
| 20260904145031 | 65 | 41 | 7.0 | 13.0 | 0.00 | 0.00 | 0.00 | 93 | 944.9 |
| 20260904144530 | 65 | 41 | 6.0 | 13.0 | 0.00 | 0.00 | 0.00 | 92 | 945.1 |
| 20260904143513 | 65 | 34 | 7.0 | 14.0 | 0.00 | 0.00 | 0.00 | 93 | 944.8 |
| 20260904142454 | 65 | 38 | 5.0 | 14.0 | 0.00 | 0.00 | 0.00 | 92 | 944.8 |
| 20260904141953 | 66 | 37 | 7.0 | 14.0 | 0.00 | 0.00 | 0.00 | 92 | 945.0 |
| 20260904141453 | 66 | 40 | 7.0 | 14.0 | 0.00 | 0.00 | 0.00 | 92 | 944.8 |
| 20260904140951 | 65 | 30 | 6.0 | 14.0 | 0.00 | 0.00 | 0.00 | 91 | 945.0 |
| 20260904135934 | 66 | 39 | 7.0 | 14.0 | 0.00 | 0.00 | 0.00 | 90 | 944.8 |
| 20260904134917 | 66 | 41 | 5.0 | 14.0 | 0.00 | 0.00 | 0.00 | 91 | 944.9 |
| 20260904134416 | 66 | 41 | 6.0 | 14.0 | 0.00 | 0.00 | 0.00 | 91 | 945.1 |